GW6199 Weather Reports


time (UTC)temp
C
wind
direction
speed
KPH
gust
KPH
rain 1hr
cm
rain 24hr
cm
rain mn
cm
humidity
%
barometer
mb
20260507145147 12 59 3.2 4.8 0.00 0.00 0.00 48 1016.4
20260507144643 12 66 1.6 3.2 0.00 0.00 0.00 51 1016.5
20260507144141 12 65 1.6 6.4 0.00 0.00 0.00 51 1016.4
20260507143637 11 59 3.2 4.8 0.00 0.00 0.00 48 1016.6
20260507143135 11 83 1.6 1.6 0.00 0.00 0.00 57 1016.5
20260507142630 11 70 1.6 3.2 0.00 0.00 0.00 58 1016.8
20260507142127 11 29 3.2 4.8 0.00 0.00 0.00 58 1016.5
20260507141623 11 43 3.2 4.8 0.00 0.00 0.00 59 1016.7
20260507141120 10 24 1.6 3.2 0.00 0.00 0.00 56 1016.5
20260507140617 10 50 1.6 4.8 0.00 0.00 0.00 58 1016.7
20260507140114 10 63 1.6 4.8 0.00 0.00 0.00 55 1016.8
20260507135611 10 331 4.8 6.4 0.00 0.00 0.00 51 1016.6
20260507135109 10 18 0.0 4.8 0.00 0.00 0.00 52 1016.7
20260507134605 10 61 1.6 3.2 0.00 0.00 0.00 59 1016.5
20260507134101 10 91 0.0 1.6 0.00 0.00 0.00 61 1016.4
20260507133557 10 130 1.6 3.2 0.00 0.00 0.00 60 1016.6
20260507133055 10 110 0.0 1.6 0.00 0.00 0.00 63 1016.4
20260507132551 10 84 0.0 1.6 0.00 0.00 0.00 63 1016.6
20260507132048 9 87 0.0 1.6 0.00 0.00 0.00 62 1016.7
20260507131544 8 66 1.6 1.6 0.00 0.00 0.00 64 1016.5
20260507131042 8 69 0.0 3.2 0.00 0.00 0.00 66 1016.7
20260507130539 8 18 1.6 1.6 0.00 0.00 0.00 68 1016.5
20260507130037 8 64 1.6 3.2 0.00 0.00 0.00 68 1016.5
20260507125535 8 76 0.0 1.6 0.00 0.00 0.00 69 1016.5
20260507125032 8 61 0.0 3.2 0.00 0.00 0.00 69 1016.4
20260507124528 7 88 1.6 1.6 0.00 0.00 0.00 71 1016.5
20260507124026 7 68 0.0 1.6 0.00 0.00 0.00 75 1016.7
20260507123524 7 95 0.0 1.6 0.00 0.00 0.00 80 1016.5
20260507123021 6 73 0.0 1.6 0.00 0.00 0.00 76 1016.8
20260507122516 6 87 0.0 1.6 0.00 0.00 0.00 80 1016.6
20260507122012 6 69 0.0 1.6 0.00 0.00 0.00 79 1016.7
20260507121508 7 66 1.6 3.2 0.00 0.00 0.00 79 1016.8
20260507121004 6 88 0.0 1.6 0.00 0.00 0.00 81 1016.5
20260507120500 6 74 1.6 3.2 0.00 0.00 0.00 83 1016.7
20260507115957 5 108 0.0 1.6 0.00 0.00 0.00 85 1016.6
20260507115453 5 98 0.0 1.6 0.00 0.00 0.00 87 1016.7
20260507114949 5 102 0.0 0.0 0.00 0.00 0.00 88 1016.7
20260507114445 5 106 0.0 0.0 0.00 0.00 0.00 91 1016.5
20260507113943 4 107 0.0 0.0 0.00 0.00 0.00 93 1016.7
20260507113440 3 107 0.0 0.0 0.00 0.00 0.00 94 1016.5
20260507112937 3 102 0.0 1.6 0.00 0.00 0.00 95 1016.7
20260507112435 3 100 0.0 0.0 0.00 0.00 0.00 95 1016.8
20260507111931 3 103 0.0 0.0 0.00 0.00 0.00 96 1016.5
20260507111429 3 103 0.0 0.0 0.00 0.00 0.00 96 1016.6
20260507110925 3 104 0.0 0.0 0.00 0.00 0.00 97 1016.5
20260507110421 3 103 0.0 0.0 0.00 0.00 0.00 97 1016.4
20260507105918 3 103 0.0 0.0 0.00 0.00 0.00 97 1016.4
20260507105415 3 103 0.0 0.0 0.00 0.00 0.00 97 1016.0
20260507104911 3 103 0.0 0.0 0.00 0.00 0.00 98 1016.1
20260507104408 3 103 0.0 0.0 0.00 0.00 0.00 98 1016.0
20260507103904 3 103 0.0 0.0 0.00 0.00 0.00 98 1016.0
20260507103401 3 103 0.0 0.0 0.00 0.00 0.00 98 1016.0
20260507102857 3 103 0.0 0.0 0.00 0.00 0.00 99 1015.9
20260507102353 3 103 0.0 0.0 0.00 0.00 0.00 99 1016.0
20260507101850 3 104 0.0 0.0 0.00 0.00 0.00 99 1016.1
20260507101350 3 105 0.0 0.0 0.00 0.00 0.00 99 1016.1
20260507100848 3 106 0.0 0.0 0.00 0.00 0.00 99 1016.1
20260507100345 3 106 0.0 0.0 0.00 0.00 0.00 99 1016.0
20260507095843 3 106 0.0 0.0 0.00 0.00 0.00 99 1016.0
20260507095339 3 105 0.0 0.0 0.00 0.00 0.00 99 1016.1
20260507094837 3 105 0.0 0.0 0.00 0.00 0.00 99 1016.1
20260507094333 3 105 0.0 0.0 0.00 0.00 0.00 99 1016.1
20260507093830 3 105 0.0 0.0 0.00 0.00 0.00 99 1016.0
20260507093329 3 105 0.0 0.0 0.00 0.00 0.00 99 1016.2
20260507092826 3 105 0.0 0.0 0.00 0.00 0.00 99 1015.9
20260507092323 3 105 0.0 0.0 0.00 0.00 0.00 99 1016.0
20260507091819 3 105 0.0 0.0 0.00 0.00 0.00 99 1015.9
20260507091316 3 104 0.0 0.0 0.00 0.00 0.00 99 1015.8
20260507090811 3 104 0.0 0.0 0.00 0.00 0.00 99 1015.8
20260507090308 3 104 0.0 0.0 0.00 0.00 0.00 99 1015.8
20260507085805 3 104 0.0 0.0 0.00 0.00 0.00 99 1015.9
20260507085301 3 104 0.0 0.0 0.00 0.00 0.00 99 1015.7
20260507084759 3 104 0.0 0.0 0.00 0.00 0.00 99 1015.8
20260507084255 3 104 0.0 0.0 0.00 0.00 0.00 99 1015.5
20260507083753 3 104 0.0 0.0 0.00 0.00 0.00 99 1015.7
20260507083249 3 104 0.0 0.0 0.00 0.00 0.00 99 1015.6
20260507082745 3 104 0.0 0.0 0.00 0.00 0.00 99 1015.6
20260507082241 3 104 0.0 0.0 0.00 0.00 0.00 99 1015.5
20260507081738 3 104 0.0 0.0 0.00 0.00 0.00 99 1015.6
20260507081234 3 104 0.0 0.0 0.00 0.00 0.00 99 1015.4
20260507080731 3 104 0.0 0.0 0.00 0.00 0.00 99 1015.4
20260507080227 3 104 0.0 0.0 0.00 0.00 0.00 99 1015.4
20260507075722 4 104 0.0 0.0 0.00 0.00 0.00 99 1015.6
20260507075219 4 104 0.0 0.0 0.00 0.00 0.00 99 1015.6
20260507074715 4 104 0.0 0.0 0.00 0.00 0.00 99 1015.5
20260507074214 4 104 0.0 0.0 0.00 0.00 0.00 99 1015.5
20260507073710 4 105 0.0 0.0 0.00 0.00 0.00 99 1015.5
20260507073206 4 105 0.0 0.0 0.00 0.00 0.00 99 1015.4
20260507072704 5 105 0.0 0.0 0.00 0.00 0.00 99 1015.5
20260507072201 5 105 0.0 0.0 0.00 0.00 0.00 99 1015.5
20260507071659 5 105 0.0 0.0 0.00 0.00 0.00 99 1015.6
20260507071155 5 105 0.0 0.0 0.00 0.00 0.00 99 1015.5
20260507070652 5 103 0.0 0.0 0.00 0.00 0.00 99 1015.3
20260507070149 5 103 0.0 0.0 0.00 0.00 0.00 99 1015.5
20260507065645 5 103 0.0 0.0 0.00 0.00 0.00 99 1015.5
20260507065142 5 103 0.0 0.0 0.00 0.00 0.00 99 1015.5
20260507064640 5 103 0.0 0.0 0.00 0.00 0.00 99 1015.6
20260507064138 5 103 0.0 0.0 0.00 0.00 0.00 99 1015.6
20260507063636 5 103 0.0 0.0 0.00 0.00 0.00 99 1015.6
20260507063132 5 103 0.0 0.0 0.00 0.00 0.00 99 1015.6
20260507062629 5 103 0.0 0.0 0.00 0.00 0.00 99 1015.7
20260507062127 5 103 0.0 0.0 0.00 0.00 0.00 99 1015.8
20260507061624 5 103 0.0 0.0 0.00 0.00 0.00 99 1015.8
20260507061122 5 103 0.0 0.0 0.00 0.00 0.00 99 1015.7
20260507060620 5 103 0.0 0.0 0.00 0.00 0.00 98 1015.6
20260507060116 5 103 0.0 0.0 0.00 0.00 0.00 98 1015.6
20260507055612 5 103 0.0 0.0 0.00 0.00 0.00 98 1015.6
20260507055108 5 103 0.0 0.0 0.00 0.00 0.00 98 1015.6
20260507054604 5 103 0.0 0.0 0.00 0.00 0.00 98 1015.8
20260507054101 5 103 0.0 0.0 0.00 0.00 0.00 98 1015.7
20260507053559 5 103 0.0 0.0 0.00 0.00 0.00 98 1015.8
20260507053058 5 103 0.0 0.0 0.00 0.00 0.00 98 1015.7
20260507052555 6 103 0.0 0.0 0.00 0.00 0.00 98 1015.8
20260507052051 6 103 0.0 0.0 0.00 0.00 0.00 98 1015.8
20260507051549 5 103 0.0 0.0 0.00 0.00 0.00 97 1015.6
20260507051046 5 103 0.0 0.0 0.00 0.00 0.00 97 1015.8
20260507050542 6 103 0.0 0.0 0.00 0.00 0.00 97 1015.7
20260507050039 6 103 0.0 0.0 0.00 0.00 0.00 96 1015.7
20260507045536 6 103 0.0 0.0 0.00 0.00 0.00 96 1015.8
20260507045033 6 103 0.0 0.0 0.00 0.00 0.00 96 1015.8
20260507044529 6 103 0.0 0.0 0.00 0.00 0.00 95 1015.9
20260507044026 6 103 0.0 0.0 0.00 0.00 0.00 95 1015.9
20260507043522 6 103 0.0 0.0 0.00 0.00 0.00 95 1015.9
20260507043020 6 104 0.0 0.0 0.00 0.00 0.00 95 1015.9
20260507042515 7 104 0.0 0.0 0.00 0.00 0.00 94 1015.7
20260507042011 7 104 0.0 0.0 0.00 0.00 0.00 94 1015.7
20260507041508 7 104 0.0 0.0 0.00 0.00 0.00 93 1015.7
20260507041005 7 104 0.0 0.0 0.00 0.00 0.00 93 1016.0
20260507040501 7 104 0.0 0.0 0.00 0.00 0.00 93 1015.7
20260507035956 7 104 0.0 0.0 0.00 1.22 1.22 92 1015.7
20260507035453 7 104 0.0 0.0 0.00 1.22 1.22 91 1015.7
20260507034950 7 104 0.0 0.0 0.00 1.22 1.22 91 1015.6
20260507034447 7 104 0.0 0.0 0.00 1.22 1.22 91 1015.6
20260507033945 8 104 0.0 0.0 0.00 1.22 1.22 90 1015.6
20260507033443 8 104 0.0 0.0 0.00 1.22 1.22 90 1015.8
20260507032940 8 104 0.0 0.0 0.00 1.22 1.22 90 1015.7
20260507032437 8 104 0.0 0.0 0.00 1.22 1.22 91 1015.6
20260507031932 8 104 0.0 0.0 0.00 1.22 1.22 92 1015.7
20260507031429 7 104 0.0 0.0 0.00 1.22 1.22 92 1015.7
20260507030926 7 104 0.0 0.0 0.00 1.22 1.22 92 1015.9
20260507030423 7 104 0.0 0.0 0.00 1.22 1.22 92 1015.9
20260507025920 7 104 0.0 0.0 0.00 1.22 1.22 92 1016.0
20260507025418 7 104 0.0 0.0 0.00 1.22 1.22 91 1015.8
20260507024915 7 104 0.0 0.0 0.00 1.22 1.22 90 1016.0
20260507024413 7 105 0.0 0.0 0.00 1.22 1.22 90 1015.8
20260507023908 8 105 0.0 0.0 0.00 1.22 1.22 90 1015.8
20260507023405 8 129 0.0 1.6 0.00 1.22 1.22 90 1015.6
20260507022903 7 110 0.0 0.0 0.00 1.22 1.22 90 1015.6
20260507022359 8 88 0.0 0.0 0.00 1.22 1.22 88 1015.6
20260507021855 8 88 0.0 0.0 0.00 1.22 1.22 88 1015.7
20260507021350 8 88 0.0 0.0 0.00 1.22 1.22 87 1015.6
20260507020849 8 88 0.0 0.0 0.00 1.22 1.22 85 1015.6
20260507020345 8 88 0.0 0.0 0.00 1.22 1.22 85 1015.5
20260507015842 8 88 0.0 0.0 0.00 1.22 1.22 83 1015.4
20260507015340 9 88 0.0 0.0 0.00 1.22 1.22 81 1015.5
20260507014837 10 88 0.0 0.0 0.00 1.22 1.22 81 1015.4
20260507014333 10 88 0.0 0.0 0.00 1.22 1.22 79 1015.5
20260507013829 10 88 0.0 0.0 0.00 1.22 1.22 79 1015.5
20260507013327 10 88 0.0 0.0 0.00 1.22 1.22 77 1015.4
20260507012824 10 88 0.0 0.0 0.00 1.22 1.22 78 1015.1
20260507012320 10 80 0.0 0.0 0.00 1.22 1.22 75 1015.0
20260507011817 10 80 0.0 0.0 0.00 1.22 1.22 73 1015.1
20260507011314 10 80 0.0 0.0 0.00 1.22 1.22 72 1014.9
20260507010814 10 80 0.0 0.0 0.00 1.22 1.22 72 1014.9
20260507010309 10 80 0.0 0.0 0.00 1.22 1.22 71 1014.9
20260507005807 10 80 0.0 0.0 0.00 1.22 1.22 70 1015.1
20260507005305 11 80 0.0 0.0 0.00 1.22 1.22 69 1015.2
20260507004800 11 80 0.0 0.0 0.00 1.22 1.22 69 1014.8
20260507004258 11 80 0.0 0.0 0.00 1.22 1.22 68 1014.9
20260507003754 11 79 0.0 0.0 0.00 1.22 1.22 68 1014.9
20260507003249 11 79 0.0 0.0 0.00 1.22 1.22 68 1014.8
20260507002745 11 70 0.0 0.0 0.00 1.22 1.22 68 1015.0
20260507002241 11 67 0.0 0.0 0.00 1.22 1.22 69 1014.8
20260507001738 12 65 0.0 1.6 0.00 1.22 1.22 67 1014.7
20260507001236 12 56 1.6 3.2 0.00 1.22 1.22 66 1014.7
20260507000732 12 69 0.0 1.6 0.00 1.22 1.22 66 1014.9
20260507000228 12 63 0.0 3.2 0.00 1.22 1.22 66 1014.6
20260506235725 12 63 0.0 1.6 0.00 1.22 1.22 64 1014.6
20260506235220 12 72 0.0 1.6 0.00 1.22 1.22 65 1014.5
20260506234717 12 56 0.0 1.6 0.00 1.22 1.22 63 1014.5
20260506234215 12 53 1.6 3.2 0.00 1.22 1.22 62 1014.2
20260506233712 12 358 3.2 4.8 0.00 1.22 1.22 62 1014.3
20260506233208 12 46 1.6 3.2 0.00 1.22 1.22 63 1014.3
20260506232706 12 47 1.6 3.2 0.00 1.22 1.22 60 1014.3
20260506232200 12 66 1.6 1.6 0.00 1.22 1.22 64 1014.4
20260506231658 13 67 0.0 3.2 0.00 1.22 1.22 62 1014.5
20260506231156 13 53 1.6 3.2 0.00 1.22 1.22 59 1014.1
20260506230652 13 43 3.2 3.2 0.00 1.22 1.22 58 1014.0
20260506230149 13 36 3.2 3.2 0.00 1.22 1.22 57 1013.9
20260506225646 13 53 1.6 3.2 0.00 1.22 1.22 58 1014.0
20260506225143 13 51 1.6 3.2 0.00 1.22 1.22 62 1014.1
20260506224639 13 60 1.6 1.6 0.00 1.22 1.22 63 1014.1
20260506224136 13 98 0.0 3.2 0.00 1.22 1.22 65 1014.3
20260506223632 13 58 1.6 3.2 0.00 1.22 1.22 61 1014.1
20260506223128 13 70 1.6 1.6 0.00 1.22 1.22 64 1014.3
20260506222625 13 59 1.6 1.6 0.00 1.22 1.22 62 1014.3
20260506222121 13 50 1.6 3.2 0.00 1.22 1.22 62 1014.5
20260506221619 13 357 3.2 3.2 0.00 1.22 1.22 60 1014.3
20260506221117 13 55 1.6 3.2 0.00 1.22 1.22 61 1014.3
20260506220613 13 56 1.6 3.2 0.00 1.22 1.22 65 1014.4
20260506220109 13 54 1.6 3.2 0.00 1.22 1.22 64 1014.7
20260506215606 13 13 3.2 3.2 0.00 1.22 1.22 63 1014.5
20260506215101 13 44 1.6 3.2 0.00 1.22 1.22 63 1014.4
20260506214558 13 58 1.6 3.2 0.00 1.22 1.22 58 1014.6
20260506214055 13 67 0.0 0.0 0.00 1.22 1.22 63 1014.5
20260506213554 13 74 1.6 1.6 0.00 1.22 1.22 63 1014.6
20260506213050 13 69 1.6 1.6 0.00 1.22 1.22 62 1014.4
20260506212547 13 91 0.0 1.6 0.00 1.22 1.22 62 1014.3
20260506212042 13 45 1.6 1.6 0.00 1.22 1.22 59 1014.3
20260506211538 14 96 0.0 1.6 0.00 1.22 1.22 63 1014.3
20260506211036 13 62 0.0 1.6 0.00 1.22 1.22 56 1014.2
20260506210532 14 41 1.6 1.6 0.00 1.22 1.22 57 1014.3
20260506210029 14 94 0.0 3.2 0.00 1.22 1.22 59 1014.0
20260506205526 13 53 1.6 3.2 0.00 1.22 1.22 62 1013.9
20260506205021 14 58 0.0 1.6 0.00 1.22 1.22 56 1014.2
20260506204519 14 53 3.2 3.2 0.00 1.22 1.22 63 1014.2
20260506204016 14 83 1.6 3.2 0.00 1.22 1.22 61 1014.0
20260506203514 14 71 1.6 3.2 0.00 1.22 1.22 59 1014.1
20260506203010 14 53 1.6 1.6 0.00 1.22 1.22 57 1014.1
20260506202508 15 50 1.6 3.2 0.00 1.22 1.22 61 1014.0
20260506202003 13 44 1.6 3.2 0.00 1.22 1.22 60 1014.2
20260506201502 13 63 1.6 3.2 0.00 1.22 1.22 59 1014.2
20260506200958 13 64 1.6 3.2 0.00 1.22 1.22 59 1014.4
20260506200454 13 17 1.6 3.2 0.00 1.22 1.22 62 1014.1
20260506195950 13 56 1.6 3.2 0.00 1.22 1.22 62 1014.0
20260506195448 14 26 3.2 3.2 0.00 1.22 1.22 62 1014.3
20260506194944 14 47 1.6 3.2 0.00 1.22 1.22 65 1014.2
20260506194442 14 55 3.2 4.8 0.00 1.22 1.22 58 1014.2
20260506193938 15 53 1.6 3.2 0.00 1.22 1.22 61 1014.1
20260506193436 15 54 1.6 3.2 0.00 1.22 1.22 66 1014.0
20260506192932 15 153 1.6 3.2 0.00 1.22 1.22 60 1014.2
20260506192429 14 44 3.2 3.2 0.00 1.22 1.22 62 1014.0
20260506191926 14 45 3.2 4.8 0.00 1.22 1.22 58 1013.7
20260506191422 15 4 3.2 3.2 0.00 1.22 1.22 62 1013.8
20260506190919 15 43 3.2 3.2 0.00 1.22 1.22 63 1013.6
20260506190416 15 38 3.2 4.8 0.00 1.22 1.22 59 1013.7
20260506185913 15 53 0.0 3.2 0.00 1.22 1.22 60 1013.7
20260506185410 15 48 1.6 3.2 0.00 1.22 1.22 63 1013.6
20260506184907 15 23 3.2 4.8 0.00 1.22 1.22 54 1013.7
20260506184404 15 54 1.6 4.8 0.00 1.22 1.22 56 1013.8
20260506183901 16 65 1.6 3.2 0.00 1.22 1.22 60 1013.7
20260506183356 15 84 0.0 3.2 0.00 1.22 1.22 60 1013.7
20260506182854 16 87 0.0 3.2 0.00 1.22 1.22 61 1013.8
20260506182351 15 57 0.0 1.6 0.00 1.22 1.22 66 1013.7
20260506181848 15 51 1.6 3.2 0.00 1.22 1.22 55 1013.7
20260506181346 16 45 1.6 3.2 0.00 1.22 1.22 68 1013.6
20260506180843 16 54 1.6 1.6 0.00 1.22 1.22 59 1013.7
20260506180339 15 75 1.6 3.2 0.00 1.22 1.22 63 1013.8
20260506175835 15 103 1.6 4.8 0.00 1.22 1.22 58 1014.0
20260506175332 15 49 1.6 4.8 0.00 1.22 1.22 58 1013.9
20260506174829 15 340 4.8 4.8 0.00 1.22 1.22 56 1014.0
20260506174327 15 124 1.6 1.6 0.00 1.22 1.22 56 1014.0
20260506173824 14 58 0.0 4.8 0.00 1.22 1.22 68 1014.1
20260506173321 14 1 3.2 4.8 0.00 1.22 1.22 58 1014.2
20260506172818 15 46 3.2 3.2 0.00 1.22 1.22 63 1014.2
20260506172314 15 37 3.2 3.2 0.00 1.22 1.22 60 1014.1
20260506171812 13 65 1.6 1.6 0.00 1.22 1.22 66 1014.3
20260506171309 13 64 1.6 1.6 0.00 1.22 1.22 64 1014.4
20260506170807 13 55 1.6 3.2 0.00 1.22 1.22 67 1014.4
20260506170302 14 62 1.6 1.6 0.00 1.22 1.22 65 1014.4
20260506165802 13 188 1.6 3.2 0.00 1.22 1.22 64 1014.5
20260506165258 13 342 1.6 4.8 0.00 1.22 1.22 65 1014.3
20260506164755 13 19 3.2 4.8 0.00 1.22 1.22 61 1014.6
20260506164252 13 69 0.0 1.6 0.00 1.22 1.22 67 1014.4
20260506163744 14 56 1.6 3.2 0.00 1.22 1.22 69 1014.3
20260506163244 14 202 1.6 3.2 0.00 1.22 1.22 65 1014.4
20260506162740 13 126 1.6 1.6 0.00 1.22 1.22 71 1014.2
20260506162238 13 48 0.0 3.2 0.00 1.22 1.22 67 1014.3
20260506161735 13 41 4.8 4.8 0.00 1.22 1.22 70 1014.3
20260506161232 12 67 0.0 1.6 0.00 1.22 1.22 74 1014.4
20260506160730 12 57 0.0 1.6 0.00 1.22 1.22 73 1014.5
20260506160226 12 356 3.2 4.8 0.00 1.22 1.22 71 1014.2
20260506155725 12 351 4.8 4.8 0.00 1.22 1.22 68 1014.2
20260506155221 12 53 0.0 3.2 0.00 1.22 1.22 65 1014.2
20260506153323 11 49 1.6 3.2 0.00 1.22 1.22 78 1014.1
20260506152820 11 61 1.6 3.2 0.00 1.22 1.22 80 1013.8
20260506152317 10 30 1.6 1.6 0.00 1.22 1.22 78 1014.0
20260506151816 10 42 1.6 4.8 0.00 1.22 1.22 74 1014.3
20260506151312 10 41 1.6 4.8 0.00 1.22 1.22 75 1014.4
20260506150809 10 59 0.0 3.2 0.00 1.22 1.22 77 1014.3
20260506150306 10 41 3.2 4.8 0.00 1.22 1.22 77 1014.2
20260506145803 10 68 0.0 3.2 0.00 1.22 1.22 77 1013.6